"startDT [UTC]","vpos","CH4 [ppm]","stdev(CH4) [ppm]","CO2 [ppm]","stdev(CO2) [ppm]","H2O [ppm]","stdev(H2O)","p_LGR [torr]","T_LGR [C]","mt1_LGR [us]","mt2_LGR [us]","T_ECpre [C]","T_EC1 [C]","T_EC2 [C]","p_inlet [hPa]","p_in [hPa]","p_out [hPa]","T_inlet [C]","RH_inlet [%]","dwpt_inlet [C]","T_vent [C]","RH_vent [%]","dwpt_vent [C]","flow_vent [l min-1]","flow_inlet [l min-1]","dwpt_sample [C]","T_room [C]"
2012-07-02 00:00:00,0.0,1.8964,0.0011,386.81,0.34,66.4,31.1,138.05,31.57,24.65,36.45,0.98,-12.90,-26.10,-62,546,-925,27.1,25.4,5.6,27.0,1.3,-31.0,5.73,2.34,-27.0,31.2
2012-07-02 00:01:00,0.0,1.8965,0.0009,386.83,0.31,64.5,33.3,138.05,31.57,24.65,36.44,1.04,-13.81,-26.10,-62,546,-925,27.1,25.7,5.8,27.0,1.3,-30.9,5.73,2.35,-27.0,31.1
2012-07-02 00:02:00,0.0,1.8966,0.0010,386.53,0.29,62.8,26.7,138.05,31.57,24.65,36.44,1.09,-14.68,-26.10,-62,546,-926,27.1,25.9,5.9,27.0,1.3,-30.9,5.73,2.35,-27.0,31.1
2012-07-02 00:03:00,0.0,1.8966,0.0012,386.63,0.33,64.9,29.8,138.05,31.58,24.65,36.45,1.02,-15.51,-26.10,-62,546,-925,27.1,25.6,5.7,27.0,1.3,-30.9,5.73,2.35,-27.0,31.2
2012-07-02 00:04:00,0.0,1.8966,0.0012,386.72,0.29,69.2,34.1,138.05,31.58,24.65,36.45,0.98,-16.30,-26.10,-62,546,-925,27.1,25.5,5.7,27.1,1.3,-31.1,5.73,2.36,-27.0,31.1
2012-07-02 00:05:00,0.0,1.8963,0.0010,386.76,0.26,68.6,34.6,138.05,31.58,24.65,36.44,1.05,-17.03,-26.10,-62,546,-925,27.1,25.6,5.7,27.1,1.3,-31.1,5.73,2.36,-27.0,31.2
2012-07-02 00:06:00,0.0,1.8969,0.0009,386.75,0.29,66.8,38.0,138.05,31.59,24.64,36.45,1.08,-17.72,-26.11,-62,546,-926,27.1,25.5,5.7,27.1,1.3,-31.1,5.73,2.36,-27.0,31.2
2012-07-02 00:07:00,0.0,1.8965,0.0011,386.63,0.30,74.2,34.2,138.05,31.59,24.65,36.44,1.01,-18.34,-26.11,-62,546,-925,27.1,26.1,6.0,27.1,1.3,-31.1,5.73,2.36,-27.0,31.2
2012-07-02 00:08:00,0.0,1.8964,0.0009,386.42,0.29,68.1,34.6,138.05,31.59,24.65,36.44,0.99,-18.99,-26.12,-62,546,-925,27.1,26.4,6.2,27.1,1.3,-31.1,5.73,2.35,-26.9,31.3
2012-07-02 00:09:00,0.0,1.8971,0.0010,386.24,0.35,66.4,32.1,138.05,31.59,24.65,36.45,1.05,-19.59,-26.13,-62,546,-925,27.2,26.6,6.3,27.1,1.3,-31.1,5.73,2.34,-27.0,31.3
2012-07-02 00:10:00,0.0,1.8971,0.0010,386.43,0.29,62.9,31.9,138.05,31.60,24.65,36.45,1.08,-20.17,-26.14,-62,546,-925,27.2,26.1,6.0,27.1,1.3,-31.1,5.73,2.34,-26.9,31.3
2012-07-02 00:11:00,0.0,1.8971,0.0011,386.36,0.31,64.2,30.8,138.05,31.60,24.64,36.45,0.99,-20.70,-26.14,-62,546,-925,27.2,26.3,6.2,27.1,1.3,-31.1,5.73,2.34,-27.0,31.3
2012-07-02 00:12:00,0.0,1.8971,0.0012,386.38,0.30,61.9,34.7,138.05,31.60,24.65,36.44,0.98,-21.22,-26.15,-62,546,-925,27.2,26.2,6.1,27.2,1.3,-31.1,5.73,2.35,-27.0,31.2
2012-07-02 00:13:00,0.0,1.8966,0.0010,386.51,0.26,66.4,34.4,138.05,31.61,24.65,36.45,1.03,-21.70,-26.16,-62,546,-925,27.2,25.9,6.0,27.1,1.3,-31.1,5.73,2.36,-27.0,31.2
2012-07-02 00:14:00,0.0,1.8970,0.0009,386.47,0.29,59.7,31.2,138.05,31.61,24.65,36.45,1.09,-22.15,-26.17,-62,546,-925,27.2,25.9,6.0,27.2,1.3,-31.1,5.73,2.36,-27.0,31.2
2012-07-02 00:15:00,0.0,1.8968,0.0010,386.49,0.26,65.0,33.8,138.05,31.61,24.65,36.44,0.99,-22.58,-26.18,-62,546,-925,27.2,26.1,6.0,27.1,1.3,-31.1,5.73,2.35,-27.0,31.3
2012-07-02 00:16:00,0.0,1.8971,0.0011,386.37,0.29,66.7,31.2,138.05,31.61,24.65,36.44,0.98,-22.98,-26.19,-62,547,-926,27.2,26.1,6.1,27.2,1.3,-31.0,5.73,2.35,-27.0,31.3
2012-07-02 00:17:00,0.0,1.8970,0.0010,386.43,0.29,68.7,33.4,138.05,31.62,24.65,36.44,1.03,-23.35,-26.20,-62,547,-926,27.2,26.2,6.1,27.2,1.3,-31.1,5.73,2.35,-26.9,31.3
2012-07-02 00:18:00,0.0,1.8969,0.0010,386.28,0.32,67.2,32.9,138.05,31.62,24.65,36.44,1.07,-23.70,-26.21,-62,547,-926,27.2,26.3,6.2,27.2,1.3,-31.0,5.73,2.34,-27.0,31.3
2012-07-02 00:19:00,0.0,1.8977,0.0012,386.41,0.28,58.0,30.6,138.05,31.63,24.65,36.44,1.00,-24.04,-26.22,-62,547,-925,27.2,26.1,6.1,27.2,1.3,-31.1,5.73,2.34,-27.0,31.3
2012-07-02 00:20:00,0.0,1.8971,0.0011,386.41,0.31,77.0,33.7,138.05,31.63,24.65,36.44,0.98,-24.35,-26.23,-62,547,-925,27.2,26.2,6.1,27.2,1.3,-31.1,5.73,2.35,-26.9,31.3
2012-07-02 00:21:00,0.0,1.8973,0.0010,386.32,0.31,63.4,33.1,138.05,31.64,24.65,36.45,1.02,-24.63,-26.24,-62,546,-926,27.3,26.1,6.1,27.2,1.2,-31.3,5.73,2.35,-26.9,31.3
2012-07-02 00:22:00,0.0,1.8975,0.0010,386.37,0.25,71.6,33.6,138.05,31.64,24.65,36.45,1.07,-24.92,-26.25,-62,547,-926,27.3,26.2,6.2,27.2,1.2,-31.3,5.73,2.35,-26.9,31.4
2012-07-02 00:23:00,0.0,1.8973,0.0011,386.28,0.30,78.5,36.6,138.05,31.64,24.65,36.44,1.02,-25.17,-26.26,-62,547,-926,27.3,26.3,6.2,27.2,1.2,-31.2,5.73,2.35,-26.9,31.4
2012-07-02 00:24:00,0.0,1.8975,0.0011,386.12,0.30,63.5,35.2,138.05,31.65,24.65,36.45,0.96,-25.41,-26.27,-62,547,-925,27.3,26.4,6.3,27.2,1.2,-31.3,5.73,2.34,-26.9,31.3
2012-07-02 00:25:00,0.0,1.8977,0.0011,386.31,0.32,66.4,31.1,138.05,31.65,24.65,36.44,1.01,-25.64,-26.28,-62,547,-925,27.3,26.2,6.2,27.2,1.2,-31.3,5.73,2.34,-26.9,31.3
2012-07-02 00:26:00,0.0,1.8979,0.0010,386.36,0.32,66.5,36.4,138.05,31.65,24.65,36.44,1.07,-25.85,-26.29,-62,547,-926,27.3,26.3,6.3,27.2,1.2,-31.3,5.73,2.34,-26.9,31.4
2012-07-02 00:27:00,0.0,1.8979,0.0011,386.34,0.25,63.1,32.1,138.05,31.66,24.65,36.44,1.04,-26.05,-26.30,-62,547,-926,27.3,26.3,6.3,27.2,1.2,-31.2,5.73,2.35,-26.9,31.4
2012-07-02 00:28:00,0.0,1.8983,0.0009,386.35,0.30,65.6,29.1,138.05,31.66,24.64,36.44,0.97,-26.23,-26.31,-62,547,-926,27.3,26.3,6.3,27.2,1.2,-31.3,5.73,2.35,-26.9,31.4
2012-07-02 00:29:00,0.0,1.8978,0.0010,386.50,0.28,64.5,30.2,138.05,31.67,24.65,36.45,1.01,-26.04,-26.32,-63,547,-926,27.3,25.9,6.1,27.2,1.2,-31.3,5.73,2.35,-26.9,31.3
2012-07-02 00:30:00,0.0,1.8979,0.0008,386.51,0.32,59.1,33.9,138.05,31.67,24.65,36.45,0.97,-25.93,-26.33,-62,547,-925,27.3,25.8,6.0,27.2,1.2,-31.3,5.73,2.35,-26.9,31.4
2012-07-02 00:31:00,0.0,1.8981,0.0010,386.53,0.30,66.4,36.9,138.05,31.67,24.65,36.44,1.03,-26.07,-26.34,-62,547,-926,27.3,26.1,6.2,27.3,1.2,-31.3,5.73,2.34,-26.9,31.4
2012-07-02 00:32:00,0.0,1.8979,0.0009,386.40,0.25,73.5,39.4,138.05,31.67,24.65,36.45,1.08,-26.24,-26.34,-62,547,-926,27.3,26.1,6.2,27.3,1.2,-31.3,5.73,2.34,-26.9,31.4
2012-07-02 00:33:00,0.0,1.8984,0.0010,386.43,0.30,65.3,33.7,138.05,31.68,24.65,36.45,0.94,-26.18,-26.35,-62,547,-926,27.3,26.0,6.1,27.3,1.2,-31.2,5.73,2.34,-26.9,31.4
2012-07-02 00:34:00,0.0,1.8977,0.0010,386.47,0.26,70.4,33.6,138.05,31.68,24.65,36.44,1.04,-25.95,-26.36,-62,547,-926,27.3,26.2,6.3,27.3,1.2,-31.2,5.73,2.34,-26.9,31.4
2012-07-02 00:35:00,0.0,1.8976,0.0012,386.58,0.27,67.9,34.8,138.05,31.69,24.65,36.44,0.97,-26.07,-26.38,-62,547,-926,27.3,26.1,6.2,27.3,1.2,-31.4,5.73,2.35,-26.9,31.3
2012-07-02 00:36:00,0.0,1.8980,0.0009,386.55,0.26,71.4,30.8,138.05,31.69,24.65,36.44,0.99,-26.25,-26.39,-62,547,-926,27.3,26.3,6.3,27.3,1.2,-31.5,5.73,2.36,-27.0,31.4
2012-07-02 00:37:00,0.0,1.8980,0.0010,386.55,0.28,74.3,36.0,138.05,31.69,24.65,36.44,0.94,-26.28,-26.39,-62,547,-926,27.3,26.3,6.3,27.3,1.2,-31.5,5.73,2.35,-26.9,31.4
2012-07-02 00:38:00,0.0,1.8985,0.0009,386.55,0.31,59.0,31.9,138.04,31.70,24.64,36.44,1.06,-26.00,-26.40,-62,547,-926,27.3,26.2,6.3,27.3,1.2,-31.4,5.73,2.35,-26.9,31.3
2012-07-02 00:39:00,0.0,1.8980,0.0011,386.52,0.27,59.9,27.8,138.05,31.70,24.65,36.44,1.06,-26.08,-26.41,-62,547,-926,27.4,26.3,6.3,27.3,1.2,-31.5,5.73,2.35,-26.9,31.4
2012-07-02 00:40:00,0.0,1.8981,0.0009,386.59,0.26,64.4,33.9,138.05,31.71,24.65,36.44,0.96,-26.25,-26.30,-62,547,-926,27.4,26.3,6.3,27.3,1.2,-31.2,5.73,2.33,-26.9,31.4
2012-07-02 00:41:00,0.0,1.8977,0.0009,386.53,0.29,71.9,31.7,138.05,31.71,24.65,36.45,0.95,-26.43,-25.03,-62,547,-926,27.4,26.4,6.4,27.3,1.2,-31.2,5.73,2.34,-26.9,31.4
2012-07-02 00:42:00,0.0,1.8981,0.0011,386.58,0.26,73.2,32.7,138.05,31.71,24.65,36.44,0.86,-26.56,-23.10,-62,547,-926,27.4,26.3,6.4,27.3,1.4,-29.8,5.73,2.36,-26.9,31.4
2012-07-02 00:43:00,0.0,1.8981,0.0007,386.61,0.34,63.2,31.9,138.05,31.72,24.65,36.44,0.84,-26.61,-21.13,-62,547,-926,27.4,26.5,6.5,27.4,1.6,-28.8,5.73,2.36,-26.9,31.5
2012-07-02 00:44:00,0.0,1.8985,0.0010,386.69,0.27,64.5,35.9,138.04,31.72,24.65,36.44,0.87,-26.63,-19.20,-62,547,-926,27.4,26.6,6.5,27.4,1.6,-28.4,5.73,2.36,-26.9,31.5
2012-07-02 00:45:00,0.0,1.8980,0.0010,386.73,0.27,62.5,28.5,138.05,31.73,24.65,36.44,0.91,-26.62,-17.37,-62,547,-926,27.4,26.7,6.6,27.4,1.6,-28.3,5.73,2.35,-26.9,31.5
2012-07-02 00:46:00,0.0,1.8983,0.0010,386.58,0.26,60.4,30.3,138.05,31.73,24.65,36.44,0.95,-26.60,-15.63,-62,547,-926,27.4,26.7,6.6,27.4,1.6,-28.4,5.73,2.34,-26.9,31.5
2012-07-02 00:47:00,0.0,1.8983,0.0008,386.63,0.29,67.5,33.4,138.05,31.73,24.65,36.44,0.95,-26.57,-13.98,-62,547,-926,27.4,26.9,6.7,27.4,1.6,-28.6,5.73,2.34,-26.9,31.5
2012-07-02 00:48:00,0.0,1.8986,0.0008,386.58,0.27,70.2,36.8,138.04,31.74,24.65,36.45,0.87,-26.54,-12.42,-62,547,-926,27.4,26.9,6.7,27.4,1.6,-28.7,5.73,2.35,-26.9,31.5
2012-07-02 00:49:00,0.0,1.8993,0.0011,386.78,0.34,62.1,31.6,138.04,31.74,24.65,36.44,0.83,-26.51,-10.94,-62,547,-926,27.5,27.0,6.8,27.4,1.5,-28.9,5.73,2.35,-26.9,31.6
2012-07-02 00:50:00,0.0,1.8994,0.0009,386.65,0.27,70.4,31.2,138.04,31.75,24.65,36.45,0.86,-26.47,-9.54,-62,547,-926,27.4,27.0,6.8,27.4,1.5,-29.0,5.73,2.36,-26.9,31.6
2012-07-02 00:51:00,0.0,1.8992,0.0011,386.69,0.26,64.9,39.6,138.04,31.75,24.65,36.45,0.90,-26.44,-8.22,-62,547,-926,27.5,26.9,6.7,27.4,1.5,-29.1,5.73,2.36,-26.9,31.5
2012-07-02 00:52:00,0.0,1.8990,0.0009,386.68,0.26,73.7,35.3,138.04,31.76,24.65,36.44,0.94,-26.41,-6.95,-62,547,-926,27.5,26.8,6.7,27.4,1.5,-29.2,5.73,2.35,-26.9,31.6
2012-07-02 00:53:00,0.0,1.9001,0.0010,386.61,0.33,69.0,32.8,138.04,31.76,24.65,36.44,0.96,-26.38,-5.76,-62,547,-926,27.5,26.7,6.6,27.4,1.5,-29.3,5.73,2.34,-26.9,31.6
2012-07-02 00:54:00,0.0,1.8993,0.0010,386.58,0.32,60.7,31.5,138.04,31.77,24.65,36.44,0.96,-26.35,-4.62,-62,547,-926,27.5,26.8,6.7,27.4,1.5,-29.4,5.73,2.34,-26.9,31.6
2012-07-02 00:55:00,0.0,1.8993,0.0010,386.55,0.31,67.6,31.5,138.04,31.77,24.65,36.44,0.92,-26.32,-3.54,-62,547,-926,27.5,26.7,6.6,27.4,1.4,-29.6,5.73,2.35,-26.9,31.6
2012-07-02 00:56:00,0.0,1.8987,0.0008,386.54,0.29,64.5,32.1,138.04,31.77,24.65,36.44,0.88,-26.29,-2.52,-62,547,-926,27.5,26.6,6.6,27.4,1.4,-29.6,5.73,2.35,-26.9,31.6
2012-07-02 00:57:00,0.0,1.8988,0.0012,386.56,0.31,69.8,32.0,138.04,31.77,24.65,36.44,0.88,-26.27,-1.53,-62,547,-926,27.5,26.6,6.6,27.4,1.4,-29.6,5.73,2.36,-26.9,31.6
2012-07-02 00:58:00,0.0,1.8990,0.0011,386.49,0.26,65.9,36.7,138.04,31.78,24.65,36.45,0.90,-26.24,-0.60,-62,547,-926,27.5,26.6,6.5,27.4,1.4,-29.9,5.73,2.36,-26.9,31.6
2012-07-02 00:59:00,0.0,1.8993,0.0009,386.62,0.28,68.4,35.6,138.04,31.78,24.65,36.44,0.91,-26.22,0.28,-62,547,-926,27.5,26.7,6.6,27.4,1.4,-29.8,5.73,2.35,-26.9,31.6
2012-07-02 01:00:00,0.0,1.8989,0.0008,386.33,0.26,69.2,37.7,138.04,31.79,24.65,36.45,0.93,-26.20,1.11,-62,547,-926,27.5,26.7,6.6,27.4,1.4,-29.9,5.73,2.34,-26.9,31.6
2012-07-02 01:01:00,0.0,1.8987,0.0012,386.52,0.27,69.3,37.3,138.04,31.79,24.65,36.44,0.95,-26.18,1.90,-63,547,-926,27.5,26.8,6.7,27.4,1.4,-29.8,5.73,2.34,-26.9,31.6
2012-07-02 01:02:00,0.0,1.8989,0.0011,386.27,0.29,65.8,36.7,138.04,31.79,24.65,36.45,0.96,-26.16,2.63,-63,547,-926,27.5,26.8,6.7,27.4,1.4,-29.9,5.73,2.34,-26.9,31.6
2012-07-02 01:03:00,0.0,1.8992,0.0011,386.37,0.22,75.1,36.9,138.04,31.80,24.65,36.44,0.96,-26.14,3.13,-63,547,-926,27.5,26.8,6.7,27.4,1.4,-30.0,5.73,2.35,-26.8,31.6
2012-07-02 01:04:00,0.0,1.8995,0.0010,386.29,0.31,70.9,31.8,138.04,31.80,24.64,36.44,0.94,-26.12,3.37,-62,547,-926,27.5,26.8,6.7,27.4,1.4,-30.0,5.73,2.36,-26.8,31.6
2012-07-02 01:05:00,0.0,1.8993,0.0010,386.28,0.33,82.8,29.5,138.04,31.81,24.65,36.43,0.93,-26.10,3.68,-63,547,-926,27.5,27.0,6.8,27.4,1.4,-30.1,5.73,2.36,-26.8,31.6
2012-07-02 01:06:00,0.0,1.8991,0.0010,386.16,0.26,73.6,30.5,138.04,31.81,24.65,36.44,0.90,-26.08,4.17,-63,547,-926,27.5,26.8,6.7,27.4,1.4,-30.0,5.73,2.35,-26.8,31.6
2012-07-02 01:07:00,0.0,1.8998,0.0010,386.25,0.28,75.8,35.6,138.04,31.81,24.65,36.44,0.90,-26.06,4.77,-62,547,-926,27.5,26.9,6.8,27.4,1.4,-30.0,5.73,2.34,-26.8,31.6
2012-07-02 01:08:00,0.0,1.8993,0.0011,386.27,0.29,84.7,39.1,138.04,31.82,24.65,36.44,0.90,-26.04,5.37,-63,547,-926,27.5,27.0,6.8,27.4,1.4,-30.0,5.73,2.34,-26.8,31.6
2012-07-02 01:09:00,0.0,1.8999,0.0011,386.22,0.27,69.5,32.4,138.04,31.82,24.65,36.44,0.92,-26.03,5.93,-62,547,-926,27.5,27.0,6.8,27.4,1.4,-30.1,5.73,2.34,-26.8,31.6
2012-07-02 01:10:00,0.0,1.9010,0.0010,386.05,0.25,78.8,36.9,138.04,31.83,24.65,36.45,0.94,-26.01,6.47,-62,547,-926,27.5,27.0,6.9,27.4,1.4,-30.2,5.73,2.35,-26.8,31.6
2012-07-02 01:11:00,0.0,1.9012,0.0009,386.12,0.29,76.9,36.2,138.04,31.83,24.65,36.44,0.94,-25.99,6.98,-63,547,-926,27.5,27.0,6.8,27.5,1.3,-30.3,5.73,2.36,-26.8,31.6
2012-07-02 01:12:00,0.0,1.9014,0.0012,386.16,0.26,71.3,33.9,138.04,31.83,24.65,36.44,0.94,-25.98,7.47,-63,548,-926,27.5,27.1,6.9,27.4,1.3,-30.3,5.73,2.35,-26.8,31.6
2012-07-02 01:13:00,0.0,1.9020,0.0011,386.01,0.23,72.5,33.1,138.04,31.83,24.65,36.45,0.95,-25.96,7.94,-63,547,-926,27.5,27.2,6.9,27.5,1.4,-30.2,5.73,2.35,-26.8,31.6
2012-07-02 01:14:00,0.0,1.9015,0.0009,386.12,0.28,83.2,32.2,138.04,31.83,24.65,36.44,0.96,-25.95,8.38,-63,547,-926,27.5,27.1,6.9,27.5,1.3,-30.2,5.73,2.34,-26.8,31.6
2012-07-02 01:15:00,0.0,1.9014,0.0010,385.97,0.26,81.1,31.4,138.04,31.84,24.65,36.44,0.96,-25.94,8.81,-63,547,-926,27.5,27.1,6.9,27.5,1.3,-30.2,5.73,2.33,-26.8,31.6
2012-07-02 01:16:00,0.0,1.9013,0.0013,385.99,0.28,73.3,30.2,138.04,31.85,24.65,36.44,0.96,-25.92,9.21,-63,547,-926,27.5,27.1,6.9,27.5,1.3,-30.2,5.73,2.34,-26.8,31.6
2012-07-02 01:17:00,0.0,1.9016,0.0011,386.02,0.25,80.5,37.9,138.04,31.85,24.65,36.44,0.95,-25.91,9.61,-62,547,-926,27.5,27.1,6.9,27.5,1.3,-30.2,5.73,2.36,-26.8,31.6
2012-07-02 01:18:00,0.0,1.9014,0.0013,386.03,0.28,79.6,33.5,138.04,31.86,24.65,36.43,0.95,-25.90,9.98,-62,547,-926,27.5,27.3,7.0,27.5,1.3,-30.3,5.73,2.36,-26.7,31.6
2012-07-02 01:19:00,0.0,1.9011,0.0011,385.93,0.25,86.3,35.7,138.04,31.86,24.65,36.44,0.95,-25.89,10.35,-62,547,-926,27.5,27.3,7.0,27.5,1.3,-30.2,5.73,2.35,-26.8,31.6
2012-07-02 01:20:00,1.0,1.9042,0.0023,383.86,1.44,72.7,38.4,138.04,31.86,24.65,36.44,0.94,-25.88,10.73,-62,570,-926,27.5,27.3,7.0,27.5,1.3,-30.3,5.73,2.35,-26.7,31.6
2012-07-02 01:21:00,1.0,1.9057,0.0010,381.98,0.29,80.0,36.8,138.04,31.86,24.65,36.44,0.93,-25.86,11.07,-62,569,-926,27.5,27.2,7.0,27.5,1.4,-30.2,5.73,2.33,-26.7,31.6
2012-07-02 01:22:00,1.0,1.9060,0.0009,381.85,0.30,68.0,32.5,138.04,31.87,24.65,36.44,0.91,-25.85,11.41,-62,569,-926,27.5,27.3,7.0,27.5,1.3,-30.2,5.73,2.33,-26.7,31.6
2012-07-02 01:23:00,1.0,1.9059,0.0012,381.90,0.28,73.5,31.3,138.04,31.87,24.65,36.44,0.93,-25.84,11.74,-62,569,-926,27.6,27.3,7.1,27.5,1.3,-30.2,5.73,2.34,-26.7,31.6
2012-07-02 01:24:00,1.0,1.9062,0.0010,381.84,0.27,79.5,33.8,138.04,31.87,24.64,36.44,0.94,-25.83,12.06,-62,569,-926,27.6,27.4,7.1,27.5,1.3,-30.2,5.73,2.36,-26.7,31.6
2012-07-02 01:25:00,0.0,1.9042,0.0019,384.16,1.55,79.6,37.7,138.04,31.88,24.65,36.44,0.90,-25.83,12.38,-63,546,-926,27.6,27.5,7.2,27.5,1.3,-30.3,5.73,2.34,-26.7,31.6
2012-07-02 01:26:00,0.0,1.9024,0.0010,385.73,0.27,85.2,33.5,138.04,31.88,24.65,36.44,0.94,-25.82,12.66,-63,546,-926,27.6,27.8,7.3,27.6,1.4,-30.2,5.73,2.34,-26.7,31.6
2012-07-02 01:27:00,0.0,1.9044,0.0011,385.58,0.27,80.7,36.0,138.04,31.89,24.65,36.44,0.94,-25.81,12.94,-62,546,-926,27.6,28.0,7.4,27.6,1.3,-30.2,5.73,2.34,-26.8,31.7
2012-07-02 01:28:00,0.0,1.9049,0.0010,385.42,0.27,89.0,35.9,138.04,31.89,24.65,36.44,0.95,-25.79,13.22,-63,546,-926,27.7,27.9,7.4,27.6,1.3,-30.2,5.73,2.33,-26.7,31.7
2012-07-02 01:29:00,0.0,1.9056,0.0012,385.58,0.27,83.5,35.6,138.04,31.90,24.65,36.44,0.95,-25.78,13.48,-63,546,-926,27.7,28.0,7.5,27.6,1.3,-30.2,5.73,2.34,-26.8,31.7
2012-07-02 01:30:00,0.0,1.9060,0.0011,385.55,0.30,85.0,27.9,138.04,31.90,24.65,36.43,0.95,-25.77,13.73,-63,547,-926,27.7,27.9,7.5,27.6,1.3,-30.2,5.73,2.35,-26.8,31.7
2012-07-02 01:31:00,0.0,1.9066,0.0012,385.62,0.33,83.3,33.2,138.04,31.90,24.65,36.44,0.96,-25.76,13.97,-63,547,-926,27.7,27.7,7.4,27.6,1.3,-30.2,5.73,2.35,-26.8,31.7
2012-07-02 01:32:00,0.0,1.9078,0.0010,385.76,0.25,76.1,37.6,138.04,31.90,24.65,36.44,0.95,-25.75,14.20,-63,547,-926,27.7,27.7,7.4,27.6,1.4,-30.1,5.73,2.34,-26.8,31.7
2012-07-02 01:33:00,0.0,1.9074,0.0010,385.69,0.30,79.6,33.5,138.04,31.91,24.65,36.43,0.95,-25.74,14.42,-63,547,-926,27.7,27.6,7.3,27.6,1.3,-30.2,5.73,2.33,-26.8,31.7
2012-07-02 01:34:00,0.0,1.9074,0.0011,385.62,0.34,78.9,32.0,138.04,31.91,24.65,36.44,0.96,-25.74,14.63,-63,547,-926,27.7,27.9,7.5,27.6,1.3,-30.2,5.73,2.33,-26.8,31.7
2012-07-02 01:35:00,0.0,1.9076,0.0012,385.53,0.32,82.0,33.4,138.04,31.92,24.64,36.43,0.96,-25.73,14.84,-63,547,-926,27.7,28.1,7.6,27.6,1.4,-30.1,5.73,2.34,-26.9,31.7
2012-07-02 01:36:00,0.0,1.9071,0.0011,385.54,0.31,81.6,33.4,138.04,31.92,24.65,36.44,0.96,-25.72,15.03,-63,547,-926,27.7,28.0,7.6,27.6,1.3,-30.2,5.73,2.35,-26.8,31.7
2012-07-02 01:37:00,0.0,1.9068,0.0011,385.49,0.23,71.0,36.1,138.04,31.93,24.65,36.44,0.96,-25.71,15.21,-63,547,-926,27.7,28.0,7.6,27.6,1.4,-30.1,5.73,2.35,-26.9,31.7
2012-07-02 01:38:00,0.0,1.9067,0.0013,385.57,0.32,79.5,34.3,138.04,31.93,24.65,36.44,0.96,-25.71,15.39,-63,547,-926,27.7,28.2,7.6,27.7,1.3,-30.2,5.73,2.34,-26.9,31.7
2012-07-02 01:39:00,0.0,1.9084,0.0014,385.44,0.34,72.4,36.2,138.04,31.94,24.65,36.44,0.96,-25.70,15.56,-63,547,-926,27.8,28.6,7.9,27.7,1.4,-30.1,5.73,2.33,-26.9,31.7
2012-07-02 01:40:00,0.0,1.9105,0.0011,385.70,0.28,89.9,38.0,138.04,31.94,24.65,36.44,0.95,-25.69,15.72,-63,547,-926,27.8,28.3,7.7,27.7,1.3,-30.1,5.73,2.33,-26.9,31.7
2012-07-02 01:41:00,0.0,1.9120,0.0018,385.60,0.27,84.3,41.4,138.04,31.94,24.65,36.44,0.95,-25.68,15.88,-63,547,-926,27.8,28.7,8.0,27.7,1.3,-30.1,5.73,2.34,-26.8,31.8
2012-07-02 01:42:00,0.0,1.9148,0.0011,385.81,0.29,86.4,36.0,138.04,31.95,24.65,36.44,0.95,-25.67,16.03,-63,547,-926,27.8,28.4,7.8,27.7,1.3,-30.1,5.73,2.36,-26.9,31.8
2012-07-02 01:43:00,0.0,1.9144,0.0011,385.89,0.33,85.7,33.5,138.04,31.95,24.65,36.43,0.93,-25.67,16.17,-63,547,-926,27.8,28.1,7.7,27.7,1.3,-30.1,5.73,2.35,-26.8,31.8
2012-07-02 01:44:00,0.0,1.9119,0.0010,385.73,0.25,87.5,35.7,138.04,31.96,24.65,36.43,0.94,-25.66,16.31,-63,547,-926,27.8,28.0,7.6,27.7,1.3,-30.1,5.73,2.34,-26.9,31.8
2012-07-02 01:45:00,0.0,1.9108,0.0010,385.57,0.36,93.2,33.0,138.04,31.97,24.65,36.44,0.94,-25.65,16.44,-63,547,-926,27.8,28.4,7.8,27.7,1.3,-30.1,5.73,2.33,-26.8,31.8
2012-07-02 01:46:00,0.0,1.9113,0.0009,385.41,0.37,91.4,30.9,138.04,31.97,24.65,36.43,0.95,-25.65,16.57,-63,547,-926,27.8,28.8,8.0,27.8,1.3,-30.1,5.73,2.34,-26.8,31.8
2012-07-02 01:47:00,0.0,1.9134,0.0012,385.79,0.33,92.9,42.0,138.04,31.98,24.65,36.43,0.96,-25.65,16.68,-63,547,-926,27.8,28.1,7.7,27.7,1.3,-30.1,5.73,2.35,-26.8,31.8
2012-07-02 01:48:00,0.0,1.9129,0.0010,385.61,0.33,85.4,31.5,138.04,31.98,24.65,36.43,0.93,-25.64,16.80,-63,547,-926,27.8,28.8,8.0,27.7,1.3,-30.1,5.73,2.35,-26.8,31.8
2012-07-02 01:49:00,0.0,1.9136,0.0011,385.60,0.31,81.3,35.3,138.04,31.99,24.65,36.42,0.95,-25.63,16.90,-63,547,-926,27.8,28.5,7.9,27.8,1.3,-30.1,5.73,2.34,-26.8,31.8
2012-07-02 01:50:00,0.0,1.9155,0.0013,385.58,0.30,97.0,39.6,138.04,31.99,24.65,36.43,0.94,-25.63,17.01,-63,548,-926,27.8,29.0,8.1,27.8,1.4,-30.0,5.73,2.33,-26.8,31.8
2012-07-02 01:51:00,0.0,1.9153,0.0012,385.36,0.23,101.2,30.9,138.04,32.00,24.65,36.44,0.94,-25.62,17.11,-63,547,-926,27.8,29.1,8.2,27.7,1.3,-30.1,5.73,2.33,-26.8,31.9
2012-07-02 01:52:00,0.0,1.9151,0.0009,385.46,0.31,94.3,30.6,138.04,32.00,24.65,36.44,0.94,-25.62,17.21,-63,548,-926,27.9,28.8,8.1,27.8,1.3,-30.0,5.73,2.34,-26.8,31.9
2012-07-02 01:53:00,0.0,1.9148,0.0011,385.50,0.27,98.5,34.2,138.04,32.01,24.65,36.43,0.95,-25.61,17.30,-63,547,-926,27.8,29.0,8.2,27.8,1.3,-30.0,5.73,2.35,-26.8,31.9
2012-07-02 01:54:00,0.0,1.9138,0.0013,385.36,0.31,91.7,35.1,138.04,32.02,24.65,36.44,0.95,-25.60,17.38,-63,548,-926,27.9,28.9,8.1,27.8,1.3,-30.1,5.73,2.35,-26.8,31.9
2012-07-02 01:55:00,0.0,1.9129,0.0010,385.53,0.33,94.0,35.0,138.04,32.02,24.65,36.43,0.97,-25.60,17.47,-63,548,-926,27.9,28.5,7.9,27.8,1.3,-30.0,5.73,2.33,-26.8,31.9
2012-07-02 01:56:00,0.0,1.9135,0.0010,385.32,0.27,92.3,30.1,138.04,32.03,24.65,36.43,0.94,-25.59,17.55,-63,548,-926,27.9,29.0,8.2,27.8,1.3,-30.1,5.73,2.32,-26.8,31.9
2012-07-02 01:57:00,0.0,1.9128,0.0012,385.48,0.29,108.6,37.1,138.04,32.03,24.65,36.43,0.94,-25.58,17.63,-63,548,-926,27.9,28.5,7.9,27.8,1.3,-30.0,5.73,2.34,-26.7,31.9
2012-07-02 01:58:00,0.0,1.9240,0.0063,385.62,0.36,103.9,33.4,138.03,32.04,24.65,36.43,0.94,-25.58,17.71,-63,548,-926,27.9,31.1,9.2,27.8,1.3,-30.1,5.73,2.35,-26.7,31.9
2012-07-02 01:59:00,0.0,1.9352,0.0012,386.16,0.32,110.1,36.2,138.03,32.04,24.65,36.43,0.98,-25.57,17.78,-63,548,-926,27.9,31.8,9.5,27.8,1.3,-30.1,5.73,2.35,-26.7,31.9
2012-07-02 02:00:00,0.0,1.9350,0.0011,386.04,0.31,100.9,32.6,138.03,32.05,24.65,36.44,0.95,-25.57,17.84,-63,548,-926,27.9,31.8,9.6,27.8,1.3,-30.1,5.73,2.33,-26.7,31.9
2012-07-02 02:01:00,0.0,1.9371,0.0017,386.16,0.32,106.5,40.3,138.03,32.06,24.65,36.42,0.96,-25.56,17.91,-63,548,-927,27.9,32.2,9.7,27.8,1.3,-30.1,5.73,2.33,-26.7,31.9
2012-07-02 02:02:00,0.0,1.9401,0.0012,386.39,0.30,104.1,31.9,138.03,32.06,24.65,36.43,0.95,-25.56,17.97,-63,548,-926,27.9,32.2,9.8,27.9,1.3,-30.0,5.73,2.34,-26.7,32.0
2012-07-02 02:03:00,0.0,1.9404,0.0015,386.50,0.29,95.7,40.4,138.03,32.07,24.65,36.42,0.96,-25.55,18.03,-63,548,-926,27.9,32.1,9.7,27.9,1.3,-30.0,5.73,2.35,-26.7,32.0
2012-07-02 02:04:00,0.0,1.9399,0.0010,386.36,0.33,102.9,39.1,138.03,32.08,24.65,36.43,0.95,-25.55,18.09,-63,548,-927,27.9,32.1,9.8,27.9,1.3,-30.0,5.73,2.34,-26.7,32.0
2012-07-02 02:05:00,0.0,1.9410,0.0012,386.37,0.31,102.4,38.1,138.03,32.08,24.65,36.43,0.96,-25.54,18.14,-63,548,-927,27.9,32.1,9.7,27.9,1.3,-30.0,5.73,2.33,-26.7,32.0
2012-07-02 02:06:00,0.0,1.9419,0.0012,386.57,0.28,107.9,33.5,138.03,32.09,24.64,36.43,0.95,-25.54,18.20,-63,548,-927,28.0,32.0,9.7,27.9,1.3,-30.0,5.73,2.32,-26.6,32.1
2012-07-02 02:07:00,0.0,1.9432,0.0014,386.47,0.32,109.9,34.0,138.03,32.09,24.65,36.43,0.96,-25.54,18.25,-63,548,-927,27.9,32.1,9.7,27.9,1.3,-30.0,5.73,2.34,-26.6,32.1
2012-07-02 02:08:00,0.0,1.9442,0.0010,386.68,0.34,107.9,39.3,138.03,32.10,24.65,36.43,0.96,-25.53,18.30,-63,548,-927,28.0,32.0,9.7,27.9,1.3,-30.1,5.73,2.35,-26.6,32.0
2012-07-02 02:09:00,0.0,1.9476,0.0016,386.64,0.32,109.1,43.7,138.03,32.11,24.65,36.43,0.96,-25.53,18.34,-63,548,-927,28.0,32.5,10.0,27.9,1.3,-30.0,5.73,2.35,-26.6,32.1
2012-07-02 02:10:00,0.0,1.9500,0.0012,386.63,0.29,109.1,37.3,138.03,32.11,24.65,36.43,0.96,-25.52,18.39,-63,548,-927,28.0,32.7,10.1,27.9,1.3,-30.0,5.73,2.33,-26.6,32.1
2012-07-02 02:11:00,0.0,1.9501,0.0012,386.85,0.38,106.7,42.1,138.03,32.12,24.65,36.43,0.96,-25.52,18.43,-63,548,-927,28.0,32.2,9.8,27.9,1.3,-30.0,5.73,2.33,-26.6,32.1
2012-07-02 02:12:00,0.0,1.9543,0.0012,387.08,0.27,110.0,44.9,138.03,32.13,24.65,36.43,0.95,-25.52,18.47,-63,548,-927,28.0,32.5,10.0,28.0,1.3,-30.1,5.73,2.34,-26.6,32.1
2012-07-02 02:13:00,0.0,1.9569,0.0013,387.24,0.29,99.8,32.4,138.03,32.13,24.64,36.43,0.96,-25.51,18.51,-63,548,-927,28.0,32.4,10.0,28.0,1.3,-30.0,5.73,2.35,-26.6,32.2
2012-07-02 02:14:00,0.0,1.9571,0.0011,387.16,0.28,112.2,33.8,138.03,32.14,24.65,36.43,0.96,-25.51,18.55,-63,548,-927,28.1,32.6,10.1,28.0,1.3,-30.1,5.73,2.35,-26.6,32.2
2012-07-02 02:15:00,0.0,1.9555,0.0012,387.53,0.30,117.4,36.4,138.03,32.15,24.65,36.42,0.96,-25.51,18.59,-63,548,-927,28.1,32.3,9.9,28.0,1.3,-30.0,5.73,2.33,-26.6,32.2
2012-07-02 02:16:00,0.0,1.9563,0.0012,387.63,0.30,109.1,33.4,138.03,32.15,24.65,36.44,0.96,-25.50,18.62,-63,548,-927,28.1,32.3,10.0,28.0,1.3,-30.0,5.73,2.32,-26.6,32.2
2012-07-02 02:17:00,0.0,1.9571,0.0010,388.03,0.31,124.4,39.1,138.03,32.16,24.65,36.42,0.97,-25.51,18.65,-63,549,-927,28.1,32.3,9.9,28.0,1.3,-30.0,5.73,2.34,-26.6,32.2
2012-07-02 02:18:00,0.0,1.9574,0.0011,388.18,0.24,110.4,37.3,138.03,32.17,24.65,36.42,0.96,-25.50,18.68,-63,549,-927,28.1,32.4,10.0,28.0,1.3,-30.2,5.73,2.35,-26.6,32.2
2012-07-02 02:19:00,0.0,1.9593,0.0012,387.89,0.30,109.7,40.5,138.03,32.18,24.64,36.43,0.96,-25.49,18.72,-63,549,-927,28.1,32.5,10.1,28.0,1.3,-30.0,5.73,2.35,-26.6,32.2
2012-07-02 02:20:00,0.0,1.9601,0.0012,387.98,0.28,111.5,42.3,138.03,32.18,24.65,36.43,0.96,-25.48,18.74,-63,549,-927,28.1,32.4,10.0,28.0,1.3,-30.2,5.73,2.33,-26.6,32.2